Council Bluffs, IA

2:13 AM CDT on October 23, 2019 (GMT -0500)
Council Bluffs Municipal

Weather History for KCBF - September, 2019

Change the Weather History Date:

Thursday, September 19, 2019

  Actual Average Record
Temperature  
Mean Temperature 75 °F -  
Max Temperature 86 °F 73 °F 93 °F (1998)
Min Temperature 64 °F 52 °F 41 °F (2003)
Cooling Degree Days 10    
Growing Degree Days 25 (Base 50)    
Moisture  
Dew Point 71 °F    
Average Humidity 87    
Maximum Humidity 100    
Minimum Humidity 58    
Precipitation  
Precipitation 1.06 in - - ()
Sea Level Pressure  
Sea Level Pressure 29.96 in    
Wind  
Wind Speed 9 mph ()    
Max Wind Speed 20 mph    
Max Gust Speed 28 mph    
Visibility 9.3 miles    
Events Rain    
Averages and records for this station are not official NWS values.
T = Trace of Precipitation, MM = Missing Value Source: Averaged Metar Reports

Daily Weather History Graph

Daily Weather History Graph

Search for Another Location

Airport or City:

Astronomy

Sep. 19, 2019 Rise Set
Actual Time 7:07 AM CDT 7:25 PM CDT
Civil Twilight 6:39 AM CDT 7:53 PM CDT
Nautical Twilight 6:07 AM CDT 8:25 PM CDT
Astronomical Twilight 5:34 AM CDT 8:58 PM CDT
Moon 10:32 PM CDT (9/19) 12:14 PM CDT (9/19)
Length of Visible Light 13h 13m
Length of Day
12h 18m
Waning Gibbous, 74% of the Moon is Illuminated
Sep 19
Waning Gibbous
Sep 21
Last Quarter
Sep 28
New
Oct 5
First Quarter
Oct 13
Full

Hourly Weather History & Observations

Time (CDT) Temp. Heat Index Dew Point Humidity Pressure Visibility Wind Dir Wind Speed Gust Speed Precip Events Conditions
12:15 AM 75.2 °F - 73.4 °F 94% 29.94 in 10.0 mi SSE 8.1 mph - N/A   Clear
12:35 AM 75.2 °F - 73.4 °F 94% 29.93 in 10.0 mi South 9.2 mph - N/A   Clear
12:55 AM 75.2 °F - 73.4 °F 94% 29.93 in 10.0 mi South 8.1 mph - N/A   Clear
1:15 AM 75.2 °F - 73.4 °F 94% 29.93 in 10.0 mi South 8.1 mph - N/A   Clear
1:35 AM 75.2 °F - 73.4 °F 94% 29.94 in 10.0 mi South 8.1 mph - N/A   Clear
1:55 AM 75.2 °F - 73.4 °F 94% 29.93 in 10.0 mi South 6.9 mph - N/A   Partly Cloudy
2:15 AM 77.0 °F - 73.4 °F 89% 29.93 in 10.0 mi SSW 9.2 mph - N/A   Partly Cloudy
2:35 AM 77.0 °F - 73.4 °F 89% 29.94 in 10.0 mi Variable 3.5 mph - N/A   Clear
2:55 AM 75.2 °F - 73.4 °F 94% 29.95 in 10.0 mi NNE 8.1 mph - N/A   Mostly Cloudy
3:15 AM 75.2 °F - 73.4 °F 94% 29.95 in 10.0 mi North 8.1 mph - N/A   Overcast
3:35 AM 71.6 °F - 71.6 °F 100% 29.96 in 10.0 mi North 12.7 mph 20.7 mph N/A   Light Drizzle
3:55 AM 69.8 °F - 68.0 °F 94% 29.97 in 10.0 mi North 19.6 mph 25.3 mph N/A   Light Drizzle
4:15 AM 68.0 °F - 66.2 °F 94% 30.00 in 10.0 mi Variable 6.9 mph 27.6 mph N/A   Overcast
4:35 AM 69.8 °F - 64.4 °F 83% 30.00 in 10.0 mi North 19.6 mph 27.6 mph N/A   Overcast
4:55 AM 66.2 °F - 66.2 °F 100% 30.01 in 10.0 mi North 15.0 mph 21.9 mph 0.01 in Rain Light Rain
5:15 AM 64.4 °F - 64.4 °F 100% 30.00 in 7.0 mi NNE 17.3 mph 25.3 mph N/A Rain Light Rain
5:35 AM 64.4 °F - 64.4 °F 100% 30.00 in 0.8 mi NE 15.0 mph - N/A Rain Heavy Rain
5:55 AM 64.4 °F - 64.4 °F 100% 30.02 in 10.0 mi NNE 12.7 mph 19.6 mph 0.46 in   Light Drizzle
6:15 AM 64.4 °F - 64.4 °F 100% 30.00 in 3.0 mi NE 16.1 mph - N/A Rain Heavy Rain
6:35 AM 64.4 °F - 64.4 °F 100% 30.02 in 6.0 mi NE 9.2 mph 15.0 mph N/A Rain Light Rain
6:55 AM 64.4 °F - 64.4 °F 100% 30.02 in 8.0 mi NE 8.1 mph - 0.16 in Rain Light Rain
7:15 AM 64.4 °F - 64.4 °F 100% 30.00 in 6.0 mi North 12.7 mph - N/A Rain Light Rain
7:35 AM 66.2 °F - 66.2 °F 100% 30.02 in 2.0 mi South 5.8 mph - N/A Rain Heavy Rain
7:55 AM 66.2 °F - 66.2 °F 100% 30.01 in 3.0 mi SE 15.0 mph - 0.39 in Rain Light Rain
8:15 AM 64.4 °F - 64.4 °F 100% 30.02 in 6.0 mi SSE 10.4 mph - N/A Rain Light Rain
8:55 AM 66.2 °F - 66.2 °F 100% 29.98 in 10.0 mi SE 15.0 mph 21.9 mph 0.04 in   Mostly Cloudy
9:15 AM 66.2 °F - 66.2 °F 100% 29.99 in 10.0 mi SSE 13.8 mph - N/A   Scattered Clouds
9:35 AM 66.2 °F - 66.2 °F 100% 30.01 in 10.0 mi South 12.7 mph - N/A   Clear
9:55 AM 66.2 °F - 66.2 °F 100% 30.00 in 10.0 mi SSE 11.5 mph - N/A   Partly Cloudy
10:15 AM 66.2 °F - 66.2 °F 100% 30.00 in 10.0 mi SE 8.1 mph 15.0 mph N/A   Clear
10:35 AM 68.0 °F - 68.0 °F 100% 29.99 in 10.0 mi SE 10.4 mph - N/A   Clear
10:55 AM 68.0 °F - 68.0 °F 100% 29.98 in 10.0 mi SSE 10.4 mph - N/A   Clear
11:15 AM 69.8 °F - 69.8 °F 100% 29.97 in 10.0 mi SSE 12.7 mph - N/A   Clear
11:35 AM 73.4 °F - 69.8 °F 88% 29.97 in 10.0 mi South 11.5 mph 17.3 mph N/A   Clear
11:55 AM 75.2 °F - 71.6 °F 89% 29.98 in 10.0 mi SSE 12.7 mph - N/A   Clear
12:15 PM 77.0 °F - 73.4 °F 89% 29.98 in 10.0 mi South 11.5 mph - N/A   Clear
12:35 PM 80.6 °F 84.6 °F 71.6 °F 74% 29.98 in 10.0 mi South 15.0 mph - N/A   Clear
12:55 PM 80.6 °F 85.4 °F 73.4 °F 79% 29.98 in 10.0 mi South 13.8 mph 20.7 mph N/A   Clear
1:15 PM 80.6 °F 85.4 °F 73.4 °F 79% 29.98 in 10.0 mi South 9.2 mph 16.1 mph N/A   Clear
1:35 PM 84.2 °F 88.4 °F 69.8 °F 62% 29.97 in 10.0 mi SSE 15.0 mph - N/A   Clear
1:55 PM 84.2 °F 88.4 °F 69.8 °F 62% 29.96 in 10.0 mi South 12.7 mph - N/A   Clear
2:15 PM 84.2 °F 88.4 °F 69.8 °F 62% 29.96 in 10.0 mi South 11.5 mph 18.4 mph N/A   Clear
2:35 PM 84.2 °F 89.6 °F 71.6 °F 66% 29.96 in 10.0 mi South 10.4 mph - N/A   Clear
2:55 PM 86.0 °F 91.8 °F 71.6 °F 62% 29.95 in 10.0 mi SSW 10.4 mph - N/A   Clear
3:15 PM 86.0 °F 91.8 °F 71.6 °F 62% 29.95 in 10.0 mi SSW 10.4 mph - N/A   Clear
3:35 PM 84.2 °F 89.6 °F 71.6 °F 66% 29.94 in 10.0 mi SSW 8.1 mph - N/A   Clear
3:55 PM 86.0 °F 91.8 °F 71.6 °F 62% 29.94 in 10.0 mi South 9.2 mph - N/A   Partly Cloudy
4:15 PM 86.0 °F 91.8 °F 71.6 °F 62% 29.93 in 10.0 mi South 10.4 mph - N/A   Clear
4:35 PM 86.0 °F 90.4 °F 69.8 °F 58% 29.93 in 10.0 mi SSW 9.2 mph 17.3 mph N/A   Clear
4:55 PM 86.0 °F 90.4 °F 69.8 °F 58% 29.93 in 10.0 mi SSW 8.1 mph - N/A   Clear
5:15 PM 86.0 °F 90.4 °F 69.8 °F 58% 29.93 in 10.0 mi South 10.4 mph - N/A   Clear
5:35 PM 86.0 °F 90.4 °F 69.8 °F 58% 29.93 in 10.0 mi South 6.9 mph - N/A   Clear
5:55 PM 86.0 °F 90.4 °F 69.8 °F 58% 29.93 in 10.0 mi South 8.1 mph 15.0 mph N/A   Clear
6:15 PM 84.2 °F 88.4 °F 69.8 °F 62% 29.93 in 10.0 mi South 6.9 mph - N/A   Clear
6:35 PM 84.2 °F 89.6 °F 71.6 °F 66% 29.92 in 10.0 mi South 8.1 mph - N/A   Clear
6:55 PM 82.4 °F 88.2 °F 73.4 °F 74% 29.92 in 10.0 mi SSE 8.1 mph - N/A   Clear
7:15 PM 80.6 °F 85.4 °F 73.4 °F 79% 29.92 in 10.0 mi SSE 6.9 mph - N/A   Clear
7:35 PM 78.8 °F - 75.2 °F 89% 29.92 in 10.0 mi SE 5.8 mph - N/A   Clear
7:55 PM 78.8 °F - 75.2 °F 89% 29.93 in 10.0 mi SE 4.6 mph - N/A   Clear
8:15 PM 77.0 °F - 75.2 °F 94% 29.93 in 10.0 mi SE 6.9 mph - N/A   Clear
8:35 PM 77.0 °F - 75.2 °F 94% 29.94 in 10.0 mi SE 6.9 mph - N/A   Clear
8:55 PM 75.2 °F - 75.2 °F 100% 29.94 in 10.0 mi SE 8.1 mph - N/A   Clear
9:15 PM 77.0 °F - 75.2 °F 94% 29.94 in 10.0 mi SE 9.2 mph - N/A   Clear
9:35 PM 77.0 °F - 75.2 °F 94% 29.95 in 10.0 mi SE 10.4 mph - N/A   Clear
9:55 PM 77.0 °F - 75.2 °F 94% 29.95 in 10.0 mi SE 9.2 mph - N/A   Clear
10:15 PM 75.2 °F - 75.2 °F 100% 29.95 in 10.0 mi SE 9.2 mph - N/A   Clear
10:35 PM 75.2 °F - 75.2 °F 100% 29.95 in 10.0 mi SE 10.4 mph - N/A   Clear
10:55 PM 75.2 °F - 75.2 °F 100% 29.95 in 10.0 mi SSE 9.2 mph - N/A   Clear
11:15 PM 75.2 °F - 75.2 °F 100% 29.94 in 10.0 mi SE 9.2 mph - N/A   Clear
11:35 PM 75.2 °F - 75.2 °F 100% 29.95 in 10.0 mi SSE 9.2 mph - N/A   Clear
11:55 PM 75.2 °F - 75.2 °F 100% 29.96 in 10.0 mi SSE 8.1 mph - N/A   Clear